[Date Prev][Date Next][Thread Prev][Thread Next] - [Date Index][Thread Index][Author Index]

2 Line ISS Keps 11-23



ISS 
1 25544U 98067A   04328.38148148  .00024970  00000-0  20357-3 0  2056
2 25544  51.6392 233.3216 0004450  39.6940 114.7418 15.70456915343326
----
Via the sarex mailing list at AMSAT.ORG courtesy of AMSAT-NA.
To unsubscribe, send "unsubscribe sarex" to Majordomo@amsat.org



AMSAT Top AMSAT Home